MACSAT

导读

MACSAT是卢森堡(LU)的一颗6U立方星,由纳米航空电子公司(NanoAvionics)担任平台提供商与系统集成商,于2023年10月9日随欧洲“织女星”VV23火箭在法属圭亚那库鲁航天中心发射升空。该卫星属于在轨技术演示任务,核心目标是验证基于5G技术的物联网卫星通信方案,为低轨卫星物联网部署提供在轨实验数据支撑。

基本信息
目录编号:
58024
目录名称:
MACSAT
国际标识:
2023-155J
轨道中心:
EARTH
卫星名称:
MACSAT
卫星全名:
--
卫星状态:
在轨 (已飞行1009 天)
发射日期:
2023-10-09 UTC
国别 :
(LU)
星等 :
--
轨道信息
数据来源 国际轨道数据
星历时间: 2026-07-14T01:39:15+0800
13小时前
查看轨道信息
半长轴: 6881.611km
偏心率: 0.0001952
轨道倾角: 97.578°
近地点辐角 17.190°
升交点赤经 276.870°
平近点角 342.940°
近地点: 502.13km
远地点: 504.818km
周期: 94.688分钟
每日圈数: 15.207843
详细信息
使用方式:
暂无
2D轨道图
3D轨道图
轨道高度分析图
轨道倾角分析图
轨道综合分析图
查看轨道综合分析图